This demonstration page uses our WeatherBlox Daily Observations layout. Learn more.

Left ArrowRight Arrow

Hourly Observations for November 27, 2020

Temp ( °F °C ) Dew Point ( °F °C ) Humidity (%) Winds ( mph kmh ) Pressure ( in mb ) Visibility ( mi km ) Precip ( " mm )
12:56 am 00:56 Clear 28 -2.2 26 -3.3 92 92 NW 7 11 30.22 1023 10 16 0.00 0.00
1:56 am 01:56 Clear 25 -3.9 23 -5 92 92 WNW 9 15 30.23 1024 10 16 0.00 0.00
2:56 am 02:56 Clear 26 -3.3 24 -4.4 92 92 WNW 8 13 30.25 1024 10 16 0.00 0.00
3:56 am 03:56 Clear 26 -3.3 24 -4.4 92 92 WNW 9 15 30.26 1025 10 16 0.00 0.00
4:56 am 04:56 Clear 25 -3.9 23 -5 92 92 WNW 7 11 30.27 1025 10 16 0.00 0.00
5:56 am 05:56 Clear 23 -5 21 -6.1 92 92 WNW 7 11 30.30 1026 10 16 0.00 0.00
6:56 am 06:56 Clear 24 -4.4 22 -5.6 91 91 WNW 8 13 30.32 1027 10 16 0.00 0.00
7:56 am 07:56 Sunny 24 -4.4 22 -5.6 91 91 NW 7 11 30.33 1027 10 16 0.00 0.00
8:56 am 08:56 Sunny 30 -1.1 28 -2.2 92 92 WNW 7 11 30.34 1028 10 16 0.00 0.00
9:56 am 09:56 Sunny 39 3.9 34 1.1 82 82 WNW 7 11 30.33 1027 10 16 0.00 0.00
10:56 am 10:56 Sunny 45 7.2 29 -1.7 54 54 WSW 3 6 30.33 1027 10 16 0.00 0.00
11:56 am 11:56 Sunny 48 8.9 22 -5.6 36 36 WSW 7 11 30.32 1027 10 16 0.00 0.00
12:56 pm 12:56 Sunny 48 8.9 23 -5 37 37 WSW 12 19 30.30 1026 10 16 0.00 0.00
1:56 pm 13:56 Sunny 50 10 23 -5 35 35 W 8 13 30.28 1025 10 16 0.00 0.00
2:56 pm 14:56 Sunny 50 10 23 -5 35 35 WSW 9 15 30.26 1025 10 16 0.00 0.00
3:56 pm 15:56 Sunny 50 10 25 -3.9 38 38 WSW 9 15 30.25 1024 10 16 0.00 0.00
4:56 pm 16:56 Sunny 47 8.3 26 -3.3 44 44 SW 6 9 30.25 1024 10 16 0.00 0.00
5:56 pm 17:56 Clear 41 5 25 -3.9 53 53 SSW 6 9 30.26 1025 10 16 0.00 0.00
6:56 pm 18:56 Clear 38 3.3 23 -5 55 55 SW 8 13 30.26 1025 10 16 0.00 0.00
7:56 pm 19:56 Clear 38 3.3 22 -5.6 52 52 SW 10 17 30.26 1025 10 16 0.00 0.00
8:56 pm 20:56 Clear 36 2.2 22 -5.6 57 57 SW 10 17 30.26 1025 10 16 0.00 0.00
9:56 pm 21:56 Clear 36 2.2 21 -6.1 55 55 SW 10 17 30.24 1024 10 16 0.00 0.00
10:56 pm 22:56 Clear 33 0.6 21 -6.1 61 61 SW 9 15 30.22 1024 10 16 0.00 0.00
11:56 pm 23:56 Clear 33 0.6 20 -6.7 58 58 SW 8 13 30.22 1024 10 16 0.00 0.00

Powered by AerisWeather